CAPE
0 0 0 0 0 0 0 0 0 2 131 193 94 2 94 283 525 10 1 0 92 294 869 1409 1566 1583 1611 1590 1489 1646 1914 1956 1844 1751 1768 1773 1685 1783 2043 2124 2160 2108 1788 1749 1736 1712 1623 1515 1567
0 0 0 0 0 0 2 0 0 30 160 440 542 561 529 136 233 107 19 24 128 476 916 1378 1584 1548 1572 1541 1560 1776 2043 2052 1907 1802 1674 1692 1594 1720 1858 2052 2160 2160 1808 1842 1823 1745 1552 1355 1353
0 0 0 0 0 0 0 2 6 226 462 834 1186 1199 1118 746 281 105 163 73 257 578 916 1294 1545 1451 1504 1488 1548 1743 1891 1890 1824 1798 1675 1523 1527 1611 1757 1989 2254 2204 1786 1753 1768 1507 1230 1054 909
0 0 0 0 0 0 0 0 0 212 756 921 1012 1121 998 1099 662 316 220 139 276 494 841 1308 1466 1380 1432 1491 1586 1698 1598 1498 1558 1713 1837 1777 1536 1510 1717 1900 2357 2137 1903 1691 1485 1220 1015 809 618
0 0 0 0 0 0 0 0 0 180 1362 1473 1438 1228 611 1255 773 380 174 95 162 464 795 1203 1353 1327 1389 1564 1653 1562 1387 1331 1481 1639 1670 1814 1863 1741 1600 1656 1935 2353 2151 1789 1344 1072 802 559 484
0 0 0 0 0 0 0 151 571 1234 1329 1321 1205 1221 924 254 241 138 128 60 132 342 729 1026 1223 1269 1321 1415 1439 1354 1258 1286 1394 1458 1513 1710 1573 1435 1561 1717 1602 1479 1304 1112 870 554 447 497 610
0 0 0 0 0 0 0 16 446 199 176 164 1002 1055 966 480 209 243 208 257 337 316 583 1040 1347 1163 1206 1261 1317 1313 1233 1255 1319 1294 1336 1414 1179 1187 1523 1705 1659 1426 1075 783 581 563 668 786 761
0 0 0 0 0 0 0 0 0 0 1 772 956 748 893 199 310 418 451 482 403 212 367 587 1037 1118 1150 1234 1336 1326 1225 1212 1225 1178 1194 1113 975 1115 1358 1528 1650 1479 1186 903 943 1011 885 670 527
0 0 0 0 0 0 0 0 0 0 5 0 87 514 408 148 665 520 567 530 565 449 185 400 648 907 1158 1300 1347 1285 1187 1161 1145 1118 1054 922 753 954 1205 1271 1477 1604 1586 1443 1333 809 295 205 104
0 0 0 0 0 0 0 0 0 0 0 0 1 55 471 554 678 654 603 584 647 607 519 473 427 637 958 1119 1264 1205 1131 1109 1052 987 867 660 577 725 941 1148 1276 1405 1444 1333 1002 608 110 38 62
0 0 0 0 0 0 0 0 0 0 0 0 0 243 268 451 686 769 786 594 467 611 601 657 699 516 739 913 1102 1089 1067 1020 941 844 692 556 586 729 956 1251 1359 1391 1374 935 648 402 170 134 154
0 0 0 0 0 0 0 0 0 0 0 0 0 228 159 94 176 424 782 1100 1046 761 735 781 795 534 500 607 825 893 961 928 842 718 635 600 598 1001 1227 1165 1388 1171 1082 443 332 238 164 186 144
0 0 0 0 0 0 0 0 0 0 0 0 0 28 186 69 68 113 205 509 1047 1293 1151 992 791 497 457 291 531 726 813 833 707 602 601 575 730 905 801 927 1004 978 515 223 206 168 233 246 147
0 0 0 0 0 0 0 0 0 0 0 0 0 0 39 205 192 180 195 91 237 1059 1191 1034 765 617 659 394 158 256 439 397 425 518 587 773 898 1058 1030 1136 850 580 385 154 102 92 185 256 169
0 0 0 0 0 0 0 0 0 0 0 0 0 0 0 0 0 0 0 0 3 838 1007 1068 558 655 776 544 215 776 635 384 627 614 825 1208 1309 1195 1156 806 599 487 142 49 0 0 49 146 157
0 0 0 0 0 0 0 0 0 0 0 0 0 0 0 0 0 0 0 1 37 919 1070 1096 736 738 848 795 1056 1314 941 775 947 1109 1112 1363 1278 1186 770 560 378 125 0 0 0 21 32 87 82
0 0 0 0 0 0 0 0 0 0 0 0 0 0 0 0 56 613 364 46 147 801 1157 1177 1096 1039 1004 976 1482 1501 1171 1175 1338 1679 1595 1613 1220 836 663 491 120 0 0 0 0 3 22 36 32
0 0 0 0 0 0 0 0 0 0 0 0 0 0 0 0 48 675 451 81 221 698 1123 1295 1298 1276 1402 1581 1401 1514 1441 1457 1597 1791 1662 1427 1011 717 584 149 0 0 0 0 0 0 7 19 48
0 0 0 0 0 0 0 0 0 0 0 0 0 0 0 0 37 706 341 111 225 537 981 1373 1353 1333 1382 1302 1226 1230 1265 1392 1313 1141 1450 864 711 449 235 0 0 0 0 0 0 0 0 0 3
0 0 0 0 0 0 0 0 0 0 0 0 0 0 0 0 81 732 462 165 346 507 780 1185 1234 1138 1068 1105 1112 1157 1209 1193 1023 904 1022 879 343 181 0 0 0 0 0 0 0 0 0 0 0
0 0 0 0 0 0 0 0 0 0 0 0 0 0 0 0 17 634 845 315 404 438 664 922 1003 1097 1224 1259 1178 1102 1523 1348 715 432 736 450 182 1 0 0 0 0 0 0 0 0 0 0 0
0 0 0 0 0 0 0 0 0 0 0 0 0 0 0 0 2 478 703 670 749 368 643 831 994 1243 1328 1282 1256 1317 1447 940 268 235 340 308 6 2 0 0 0 0 0 0 0 0 0 0 0
0 0 0 0 0 0 0 0 0 0 0 0 0 0 0 0 0 282 627 731 557 616 706 964 1201 1274 1167 1230 1456 1673 1239 379 314 340 353 35 17 7 0 0 0 0 0 0 0 0 0 0 0
0 0 0 0 0 0 0 0 0 0 0 0 0 0 0 0 0 45 487 697 822 1117 1145 1173 1199 1368 1334 1546 1562 1158 496 436 212 358 226 36 1 0 0 0 0 0 0 0 0 0 0 0 0
0 0 0 0 0 0 0 0 0 0 0 0 0 0 0 0 3 29 18 100 487 921 976 619 783 1080 1548 1335 899 311 501 485 296 226 68 18 0 0 0 0 0 0 0 0 0 0 0 0 0
0 0 0 0 0 0 0 0 0 0 0 0 0 0 0 0 7 13 0 0 0 6 253 63 206 827 1094 432 293 299 421 222 193 106 41 0 0 0 0 0 0 0 0 0 0 0 0 0 0
0 0 0 0 0 0 0 0 0 0 0 0 0 0 0 0 0 0 0 0 0 0 0 0 0 55 317 28 201 214 229 85 136 40 0 0 0 0 0 0 0 0 0 0 0 0 0 0 0
0 0 0 0 0 0 0 0 0 0 0 0 0 0 0 0 0 0 0 0 0 0 0 0 0 0 19 240 292 165 166 40 27 4 0 0 0 0 0 0 0 0 0 0 0 0 0 0 0
0 0 0 0 0 0 0 0 0 0 0 0 0 0 0 0 0 5 0 0 0 0 0 0 0 4 66 113 177 111 151 127 147 53 0 0 0 0 0 0 0 0 0 0 0 0 5 9 6
0 0 0 0 0 0 0 0 0 0 0 0 0 0 0 0 0 1 0 0 0 0 0 0 0 5 102 191 109 118 143 143 99 15 19 14 25 13 6 20 12 9 17 31 47 63 84 109 63
CIN
0 0 0 0 0 0 0 0 0 -20 -104 -198 -197 -45 -180 -220 -75 -73 -79 -33 -955 -791 -517 -335 -293 -279 -264 -250 -247 -208 -162 -137 -132 -131 -107 -104 -110 -91 -47 -27 -19 -18 -37 -30 -14 -3 0 -2 0
0 0 0 0 0 0 -22 0 0 -73 -231 -253 -256 -266 -284 -329 -375 -542 -486 -682 -932 -746 -532 -363 -300 -294 -272 -255 -238 -191 -134 -106 -119 -121 -135 -127 -138 -102 -71 -37 -18 -11 -35 -20 -8 -3 -5 -10 -11
0 0 0 0 0 0 0 -22 -136 -169 -154 -114 -187 -247 -267 -296 -424 -559 -463 -462 -888 -701 -557 -400 -313 -317 -287 -268 -242 -187 -139 -128 -130 -131 -141 -154 -139 -111 -78 -32 -11 -11 -36 -27 -17 -19 -32 -34 -42
0 0 0 0 0 0 0 0 0 -149 -166 -238 -246 -259 -231 -212 -281 -363 -417 -1023 -889 -708 -542 -387 -327 -323 -296 -268 -235 -182 -167 -177 -170 -133 -112 -102 -114 -113 -70 -31 -3 -10 -18 -34 -36 -46 -60 -69 -74
0 0 0 0 0 0 0 0 0 -95 -112 -154 -188 -250 -362 -174 -197 -247 -336 -362 -923 -701 -527 -392 -329 -314 -290 -245 -204 -197 -199 -202 -171 -131 -119 -81 -59 -59 -59 -47 -10 0 -3 -21 -57 -77 -84 -88 -91
0 0 0 0 0 0 0 -186 -141 -141 -136 -146 -196 -201 -220 -116 -205 -303 -346 -379 -880 -743 -540 -413 -327 -293 -286 -245 -205 -211 -224 -200 -173 -158 -141 -87 -94 -89 -60 -24 -32 -39 -63 -83 -107 -156 -167 -150 -96
0 0 0 0 0 0 0 -23 -92 -93 -57 -155 -104 -128 -152 -105 -152 -372 -344 -315 -290 -716 -573 -389 -290 -298 -281 -240 -217 -207 -217 -190 -173 -169 -139 -98 -122 -117 -51 -17 -15 -39 -69 -99 -130 -148 -139 -119 -189
0 0 0 0 0 0 0 0 0 0 -7 -116 -77 -180 -146 -127 -733 -375 -333 -308 -290 -487 -633 -516 -352 -297 -263 -223 -189 -182 -187 -174 -163 -153 -136 -126 -126 -83 -42 -30 -6 -12 -38 -85 -93 -69 -98 -122 -97
0 0 0 0 0 0 0 0 0 0 -113 0 -118 -203 -240 -298 -629 -545 -351 -329 -305 -275 -667 -561 -442 -341 -239 -195 -171 -159 -166 -160 -143 -137 -133 -131 -145 -94 -53 -45 -16 -6 -7 -13 -35 -79 -111 -187 -195
0 0 0 0 0 0 0 0 0 0 0 0 -19 -408 -228 -540 -517 -549 -341 -355 -304 -276 -237 -224 -495 -390 -264 -196 -159 -154 -151 -148 -145 -144 -140 -160 -153 -122 -91 -58 -41 -21 -14 -19 -34 -42 -85 -122 -247
0 0 0 0 0 0 0 0 0 0 0 0 0 -276 -275 -424 -411 -449 -485 -422 -343 -276 -232 -210 -184 -211 -285 -213 -158 -144 -142 -148 -150 -145 -148 -155 -127 -109 -68 -39 -31 -22 -10 -26 -43 -100 -107 -99 -166
0 0 0 0 0 0 0 0 0 0 0 0 0 -316 -301 -415 -443 -451 -453 -408 -412 -398 -232 -205 -196 -196 -337 -248 -187 -156 -139 -150 -154 -156 -154 -134 -118 -57 -30 -40 -12 -13 -4 -22 -78 -121 -132 -150 -155
0 0 0 0 0 0 0 0 0 0 0 0 0 -299 -302 -356 -364 -386 -460 -411 -365 -324 -239 -182 -198 -77 -32 -59 -231 -166 -154 -158 -163 -164 -151 -129 -92 -63 -62 -34 -8 0 -11 -89 -142 -177 -183 -137 -145
0 0 0 0 0 0 0 0 0 0 0 0 0 0 -256 -299 -326 -347 -338 -331 -580 -380 -251 -185 -202 -41 -16 -24 -387 -302 -137 -225 -200 -164 -141 -89 -46 -23 -12 -2 -2 -16 -27 -103 -187 -239 -142 -110 -141
0 0 0 0 0 0 0 0 0 0 0 0 0 0 0 0 0 0 0 0 -115 -405 -291 -188 -112 -36 -14 -19 -299 -71 -80 -68 -64 -49 -76 -24 -10 -7 0 -1 -5 -37 -112 -180 0 0 -241 -121 -86
0 0 0 0 0 0 0 0 0 0 0 0 0 0 0 0 0 0 0 -81 -633 -359 -305 -183 -194 -45 -19 -188 -81 -34 -61 -60 -35 -5 -10 -16 -6 0 0 -4 -24 -98 0 0 0 -185 -173 -126 -111
0 0 0 0 0 0 0 0 0 0 0 0 0 0 0 0 -377 -526 -641 -468 -501 -362 -270 -186 -175 -163 -169 -138 -52 -23 -43 -49 -28 0 -2 0 0 0 -2 -8 -63 0 0 0 0 -114 -164 -106 -85
0 0 0 0 0 0 0 0 0 0 0 0 0 0 0 0 -664 -487 -573 -481 -357 -336 -231 -165 -135 -123 -103 -59 -50 -20 -15 -19 -7 0 0 0 0 0 -4 -55 0 0 0 0 0 0 -140 -106 -85
0 0 0 0 0 0 0 0 0 0 0 0 0 0 0 0 -662 -475 -603 -462 -405 -322 -232 -154 -124 -108 -90 -72 -56 -30 -19 -7 -7 -1 0 0 -3 -15 -39 0 0 0 0 0 0 0 0 0 -12
0 0 0 0 0 0 0 0 0 0 0 0 0 0 0 0 -674 -421 -490 -526 -360 -329 -248 -152 -114 -100 -87 -53 -31 -8 -2 0 -1 -8 -1 -1 -42 -71 0 0 0 0 0 0 0 0 0 0 0
0 0 0 0 0 0 0 0 0 0 0 0 0 0 0 0 -764 -441 -380 -469 -340 -307 -256 -173 -115 -79 -36 -6 0 0 0 0 -14 -54 -8 -24 -75 -25 0 0 0 0 0 0 0 0 0 0 0
0 0 0 0 0 0 0 0 0 0 0 0 0 0 0 0 -97 -465 -387 -356 -322 -340 -240 -161 -105 -40 -11 0 0 0 0 -1 -94 -102 -62 -51 -131 -102 0 0 0 0 0 0 0 0 0 0 0
0 0 0 0 0 0 0 0 0 0 0 0 0 0 0 0 0 -540 -386 -317 -344 -298 -224 -118 -67 -19 -14 0 0 0 0 -97 -108 -91 -68 -131 -114 -108 0 0 0 0 0 0 0 0 0 0 0
0 0 0 0 0 0 0 0 0 0 0 0 0 0 0 0 0 -663 -374 -274 -262 -183 -128 -79 -61 -21 -15 -3 0 -3 -87 -102 -144 -90 -102 -129 -41 0 0 0 0 0 0 0 0 0 0 0 0
0 0 0 0 0 0 0 0 0 0 0 0 0 0 0 0 -586 -671 -666 -500 -310 -203 -155 -200 -155 -88 -20 -19 -57 -154 -100 -96 -107 -106 -125 -94 0 0 0 0 0 0 0 0 0 0 0 0 0
0 0 0 0 0 0 0 0 0 0 0 0 0 0 0 0 -918 -667 0 0 0 -57 -323 -394 -314 -146 -83 -180 -195 -171 -117 -129 -114 -127 -117 0 0 0 0 0 0 0 0 0 0 0 0 0 0
0 0 0 0 0 0 0 0 0 0 0 0 0 0 0 0 0 0 0 0 0 0 0 0 0 -305 -217 -345 -215 -193 -154 -168 -117 -112 0 0 0 0 0 0 0 0 0 0 0 0 0 0 0
0 0 0 0 0 0 0 0 0 0 0 0 0 0 0 0 0 0 0 0 0 0 0 0 0 0 -271 -203 -176 -197 -165 -185 -169 -73 0 0 0 0 0 0 0 0 0 0 0 0 0 0 0
0 0 0 0 0 0 0 0 0 0 0 0 0 0 0 0 0 -450 -120 0 0 0 0 0 0 -134 -280 -230 -187 -207 -175 -161 -118 -139 -8 0 0 0 0 0 0 0 0 0 0 0 -30 -24 -28
0 0 0 0 0 0 0 0 0 0 0 0 0 0 0 0 0 -204 0 0 0 0 0 0 0 -193 -229 -165 -187 -172 -139 -117 -99 -141 -144 -112 -100 -93 -44 -19 -37 -4 -3 -2 -4 -13 -10 -1 -2
Wind_Speed
nan nan nan nan nan nan nan nan nan nan 6 6 nan nan nan 16 20 nan nan nan nan 32 28 29 32 33 34 32 34 35 37 39 39 38 37 36 36 34 30 27 26 28 30 30 30 31 30 28 27
nan nan nan nan nan nan nan nan nan nan 7 13 18 19 20 19 20 19 nan nan 29 30 28 27 31 33 35 34 35 37 39 40 41 39 37 35 35 34 32 28 26 26 29 29 30 31 33 30 27
nan nan nan nan nan nan nan nan nan 6 9 7 15 13 17 18 18 22 19 nan 30 27 27 28 33 34 36 36 36 37 40 42 42 40 38 36 36 34 32 30 27 28 27 29 31 31 32 29 28
nan nan nan nan nan nan nan nan nan 11 13 18 15 13 11 14 21 21 29 32 30 25 25 30 32 34 36 39 39 38 40 43 42 40 37 35 34 33 32 29 28 29 32 30 31 31 32 34 29
nan nan nan nan nan nan nan nan nan 14 15 14 13 15 12 14 22 31 33 nan 32 26 26 28 29 33 36 38 40 41 42 44 43 40 38 35 32 29 30 30 30 29 29 29 32 34 34 30 33
nan nan nan nan nan nan nan 22 24 24 19 16 20 19 13 20 22 26 29 nan 28 31 29 30 31 33 36 38 39 40 42 45 43 41 39 38 34 30 30 30 28 27 27 28 28 28 32 36 34
nan nan nan nan nan nan nan nan 25 22 21 17 20 19 14 24 27 28 28 29 28 29 31 33 32 32 36 38 40 41 43 45 42 40 37 36 31 30 29 29 28 29 23 20 21 28 30 22 37
nan nan nan nan nan nan nan nan nan nan nan 20 21 24 22 24 29 30 27 27 28 28 30 33 34 35 36 37 41 43 44 45 40 39 35 30 28 25 25 25 26 19 22 19 19 16 21 26 29
nan nan nan nan nan nan nan nan nan nan nan nan nan 23 22 34 35 30 27 23 25 27 30 33 35 36 38 38 38 43 47 44 39 36 31 25 23 25 22 23 22 23 18 21 22 21 22 24 27
nan nan nan nan nan nan nan nan nan nan nan nan nan nan 32 34 35 33 29 28 27 29 31 34 36 36 39 38 40 42 41 35 32 31 25 22 22 24 22 21 20 20 24 22 24 28 25 nan nan
nan nan nan nan nan nan nan nan nan nan nan nan nan 30 31 29 30 33 30 32 34 31 33 36 40 38 40 38 39 38 31 30 30 27 21 21 22 23 20 22 19 21 21 17 19 24 27 28 38
nan nan nan nan nan nan nan nan nan nan nan nan nan 35 32 nan 26 27 29 31 33 34 35 38 36 42 41 39 37 32 29 29 28 21 21 20 20 22 23 22 22 22 18 15 19 25 27 32 30
nan nan nan nan nan nan nan nan nan nan nan nan nan nan 32 nan nan 25 27 29 35 34 36 42 42 43 37 35 28 26 27 27 25 20 19 19 21 22 23 23 25 22 25 25 27 33 36 35 31
nan nan nan nan nan nan nan nan nan nan nan nan nan nan nan 28 29 29 28 nan 36 38 44 43 38 37 31 29 28 27 27 25 21 18 18 20 21 23 25 25 26 26 27 31 35 nan 41 36 35
nan nan nan nan nan nan nan nan nan nan nan nan nan nan nan nan nan nan nan nan nan 44 48 43 37 38 35 29 29 27 25 23 20 18 19 21 23 26 28 29 30 31 35 nan nan nan nan 42 36
nan nan nan nan nan nan nan nan nan nan nan nan nan nan nan nan nan nan nan nan nan 49 50 43 35 36 35 31 30 26 24 21 19 19 20 22 25 28 30 32 31 35 nan nan nan nan nan nan nan
nan nan nan nan nan nan nan nan nan nan nan nan nan nan nan nan nan 29 25 nan 46 48 46 41 38 38 37 32 30 26 23 21 19 21 22 24 26 27 27 30 33 nan nan nan nan nan nan nan nan
nan nan nan nan nan nan nan nan nan nan nan nan nan nan nan nan nan 29 30 nan 41 44 38 37 36 38 37 33 29 24 22 20 20 23 22 25 24 27 29 32 nan nan nan nan nan nan nan nan nan
nan nan nan nan nan nan nan nan nan nan nan nan nan nan nan nan nan 34 36 42 46 42 39 36 37 36 35 31 27 23 22 19 22 22 22 26 27 28 32 nan nan nan nan nan nan nan nan nan nan
nan nan nan nan nan nan nan nan nan nan nan nan nan nan nan nan nan 33 40 46 47 41 37 34 33 35 32 29 26 24 21 20 19 21 23 27 31 34 nan nan nan nan nan nan nan nan nan nan nan
nan nan nan nan nan nan nan nan nan nan nan nan nan nan nan nan nan 35 42 52 46 36 36 36 34 35 33 32 29 26 24 20 18 21 25 28 34 nan nan nan nan nan nan nan nan nan nan nan nan
nan nan nan nan nan nan nan nan nan nan nan nan nan nan nan nan nan 39 45 50 40 34 35 35 36 35 33 32 27 26 23 22 22 25 28 32 nan nan nan nan nan nan nan nan nan nan nan nan nan
nan nan nan nan nan nan nan nan nan nan nan nan nan nan nan nan nan 44 47 45 37 39 37 35 36 37 34 31 27 25 26 27 29 30 33 nan nan nan nan nan nan nan nan nan nan nan nan nan nan
nan nan nan nan nan nan nan nan nan nan nan nan nan nan nan nan nan nan 48 42 41 42 40 39 39 36 34 31 29 29 31 32 34 33 34 nan nan nan nan nan nan nan nan nan nan nan nan nan nan
nan nan nan nan nan nan nan nan nan nan nan nan nan nan nan nan nan nan nan 42 43 41 38 37 37 36 34 32 29 30 32 35 37 38 nan nan nan nan nan nan nan nan nan nan nan nan nan nan nan
nan nan nan nan nan nan nan nan nan nan nan nan nan nan nan nan nan nan nan nan nan nan 38 nan 36 36 35 32 29 30 33 35 38 41 nan nan nan nan nan nan nan nan nan nan nan nan nan nan nan
nan nan nan nan nan nan nan nan nan nan nan nan nan nan nan nan nan nan nan nan nan nan nan nan nan nan 35 nan 30 31 35 nan 41 nan nan nan nan nan nan nan nan nan nan nan nan nan nan nan nan
nan nan nan nan nan nan nan nan nan nan nan nan nan nan nan nan nan nan nan nan nan nan nan nan nan nan nan 32 30 32 36 nan nan nan nan nan nan nan nan nan nan nan nan nan nan nan nan nan nan
nan nan nan nan nan nan nan nan nan nan nan nan nan nan nan nan nan nan nan nan nan nan nan nan nan nan nan 32 32 34 37 42 47 nan nan nan nan nan nan nan nan nan nan nan nan nan nan nan nan
nan nan nan nan nan nan nan nan nan nan nan nan nan nan nan nan nan nan nan nan nan nan nan nan nan nan 33 35 35 34 38 44 nan nan nan nan nan nan nan nan nan nan nan nan nan nan nan 60 nan
Wind_Direction
nan nan nan nan nan nan nan nan nan nan 261 309 nan nan nan 314 331 nan nan nan nan 332 337 341 340 337 338 340 338 339 337 335 332 331 331 332 330 329 330 331 327 322 316 316 313 307 298 287 285
nan nan nan nan nan nan nan nan nan nan 296 301 296 312 300 311 321 323 nan nan 322 323 327 334 338 336 336 337 337 338 337 334 333 332 333 331 327 326 327 329 328 324 317 316 313 306 303 296 286
nan nan nan nan nan nan nan nan nan 218 305 266 274 273 310 301 300 315 308 nan 307 315 323 332 335 335 333 335 336 337 336 336 333 334 332 329 326 324 326 328 328 326 321 320 314 314 304 294 289
nan nan nan nan nan nan nan nan nan 255 258 239 267 280 294 301 306 310 302 300 303 312 321 327 331 330 331 334 334 333 338 335 334 332 331 329 327 329 328 330 332 330 328 326 319 318 313 300 286
nan nan nan nan nan nan nan nan nan 276 260 261 276 295 287 284 283 294 299 nan 308 313 317 323 326 327 329 331 331 330 337 338 335 330 329 328 333 333 330 329 332 340 331 322 323 322 320 315 304
nan nan nan nan nan nan nan 227 245 253 253 272 269 279 305 304 299 299 298 nan 309 315 317 321 325 326 326 325 326 328 332 338 334 330 333 333 335 337 336 336 341 340 332 328 328 334 321 313 312
nan nan nan nan nan nan nan nan 249 275 279 268 287 285 309 312 309 304 299 299 305 312 315 319 326 326 323 321 325 328 330 333 332 329 333 338 338 342 345 348 348 351 356 18 22 10 9 340 321
nan nan nan nan nan nan nan nan nan nan nan 284 292 304 312 306 301 293 289 296 305 310 313 318 322 324 320 322 326 326 328 328 327 326 333 335 342 349 352 353 352 3 359 359 3 11 16 26 2
nan nan nan nan nan nan nan nan nan nan nan nan nan 291 296 293 294 290 290 291 299 309 313 315 317 320 318 319 322 322 322 321 319 324 333 333 343 352 0 355 353 356 353 355 351 346 354 353 351
nan nan nan nan nan nan nan nan nan nan nan nan nan nan 285 295 302 305 310 313 311 318 315 312 311 314 315 317 315 316 314 309 312 320 333 335 348 356 356 351 340 341 348 348 351 356 350 nan nan
nan nan nan nan nan nan nan nan nan nan nan nan nan 290 291 295 300 310 317 320 326 319 312 314 314 313 312 309 313 308 302 302 310 323 331 336 349 353 349 342 335 335 342 1 3 355 351 348 349
nan nan nan nan nan nan nan nan nan nan nan nan nan 297 292 nan 303 310 308 306 311 314 312 309 311 312 306 299 304 304 302 304 309 324 332 342 350 349 339 332 326 328 337 334 336 341 344 343 330
nan nan nan nan nan nan nan nan nan nan nan nan nan nan 296 nan nan 296 305 307 302 315 321 317 313 313 305 303 300 300 303 308 311 321 338 342 345 340 328 323 319 318 322 324 329 334 340 335 332
nan nan nan nan nan nan nan nan nan nan nan nan nan nan nan 303 306 304 313 nan 316 321 323 319 313 312 312 307 306 307 307 308 311 324 336 334 333 327 322 319 318 314 320 325 328 nan 334 335 332
nan nan nan nan nan nan nan nan nan nan nan nan nan nan nan nan nan nan nan nan nan 322 321 319 313 309 311 305 305 306 304 303 313 317 319 328 325 323 318 316 317 319 322 nan nan nan nan 324 326
nan nan nan nan nan nan nan nan nan nan nan nan nan nan nan nan nan nan nan nan nan 309 318 311 306 304 303 303 299 296 296 295 300 308 313 319 318 317 319 317 318 320 nan nan nan nan nan nan nan
nan nan nan nan nan nan nan nan nan nan nan nan nan nan nan nan nan 285 292 nan 302 305 310 306 297 296 293 290 287 287 285 289 292 292 299 306 308 313 316 315 315 nan nan nan nan nan nan nan nan
nan nan nan nan nan nan nan nan nan nan nan nan nan nan nan nan nan 285 293 nan 302 307 303 295 287 288 288 289 286 280 280 281 283 281 291 299 307 314 315 311 nan nan nan nan nan nan nan nan nan
nan nan nan nan nan nan nan nan nan nan nan nan nan nan nan nan nan 281 290 299 301 298 295 296 292 290 292 289 284 276 280 277 280 286 297 304 309 310 310 nan nan nan nan nan nan nan nan nan nan
nan nan nan nan nan nan nan nan nan nan nan nan nan nan nan nan nan 296 311 313 308 302 292 288 287 292 289 283 274 276 277 273 280 292 298 304 304 305 nan nan nan nan nan nan nan nan nan nan nan
nan nan nan nan nan nan nan nan nan nan nan nan nan nan nan nan nan 313 319 316 308 303 297 293 294 295 285 280 278 272 270 275 285 294 297 300 300 nan nan nan nan nan nan nan nan nan nan nan nan
nan nan nan nan nan nan nan nan nan nan nan nan nan nan nan nan nan 315 322 313 306 295 287 292 294 289 284 285 279 290 280 286 290 292 292 296 nan nan nan nan nan nan nan nan nan nan nan nan nan
nan nan nan nan nan nan nan nan nan nan nan nan nan nan nan nan nan 315 315 312 292 287 288 286 286 282 282 282 279 276 276 278 285 286 294 nan nan nan nan nan nan nan nan nan nan nan nan nan nan
nan nan nan nan nan nan nan nan nan nan nan nan nan nan nan nan nan nan 303 297 286 278 280 284 285 281 282 282 283 281 286 290 291 291 294 nan nan nan nan nan nan nan nan nan nan nan nan nan nan
nan nan nan nan nan nan nan nan nan nan nan nan nan nan nan nan nan nan nan 297 289 284 287 285 286 285 282 281 284 287 293 295 296 296 nan nan nan nan nan nan nan nan nan nan nan nan nan nan nan
nan nan nan nan nan nan nan nan nan nan nan nan nan nan nan nan nan nan nan nan nan nan 289 nan 287 284 283 284 291 291 292 290 290 294 nan nan nan nan nan nan nan nan nan nan nan nan nan nan nan
nan nan nan nan nan nan nan nan nan nan nan nan nan nan nan nan nan nan nan nan nan nan nan nan nan nan 286 nan 289 292 291 nan 295 nan nan nan nan nan nan nan nan nan nan nan nan nan nan nan nan
nan nan nan nan nan nan nan nan nan nan nan nan nan nan nan nan nan nan nan nan nan nan nan nan nan nan nan 290 289 289 291 nan nan nan nan nan nan nan nan nan nan nan nan nan nan nan nan nan nan
nan nan nan nan nan nan nan nan nan nan nan nan nan nan nan nan nan nan nan nan nan nan nan nan nan nan nan 285 284 285 293 299 300 nan nan nan nan nan nan nan nan nan nan nan nan nan nan nan nan
nan nan nan nan nan nan nan nan nan nan nan nan nan nan nan nan nan nan nan nan nan nan nan nan nan nan 280 282 287 291 295 296 nan nan nan nan nan nan nan nan nan nan nan nan nan nan nan 308 nan